Other Surface Observations
Issued by NWS

Home | Current Version | Previous Version | Text Only | Print | Product List | Glossary On
Versions: 1 2 3 4 5 6 7 8 9 10 11 12 13 14 15 16 17 18 19 20 21 22 23 24 25 26 27 28 29 30 31 32 33 34 35 36 37 38 39 40 41 42 43 44 45 46 47 48 49 50
604
SXUS52 KTAE 310618
OSOTAE
OSOTAE
North Florida/South Alabama/Southwest Georgia Weather Roundup
National Weather Service Tallahassee Florida
200 AM EDT TUE MAY 31 2016

Note: "fair" indicates few or no clouds below 12,000 feet with no
significant weather and/or obstructions to visibility.

!FLZ017-115-028-034-025-310700
...North Florida...

CITY           SKY/WX    TMP DP  RH WIND       PRES   REMARKS
TALLAHASSEE    PTCLDY    71  65  81 CALM      29.93F
APALACHICOLA   CLEAR     76  76 100 W6        29.94F
PERRY          CLEAR     72  71  95 CALM      29.94F
CROSS CITY       N/A     73  71  93 S5        29.94F
JACKSONVILLE   CLEAR     72  66  81 SW9       29.92F
$$

!FLZ112-006-005-002-011-310700
...Florida Panhandle...

CITY           SKY/WX    TMP DP  RH WIND       PRES   REMARKS
MARIANNA       CLEAR     71  68  90 CALM      29.92F
BONIFAY        FAIR      69  67  93 CALM      29.93F
PANAMA CITY NW FOG       74  72  93 CALM      29.92F VSB 1/2
TYNDALL AFB    PTCLDY    78  76  92 W3        29.93F
TYND DRONE APT FAIR      78  77  96 CALM      29.93F
DE FUNIAK SPR  FAIR      71  69  95 CALM      29.95F
EGLIN AFB      PTCLDY    73  70  90 CALM      29.93F
DESTIN         CLEAR     81  76  84 CALM      29.93F
HURLBURT       CLEAR     77  74  91 NW5       29.92F
CRESTVIEW      CLEAR     70  66  87 CALM      29.95F
PENSACOLA      CLEAR     78  73  84 W6        29.93F
$$

!ALZ063-066-310700
...South Alabama...

CITY           SKY/WX    TMP DP  RH WIND       PRES   REMARKS
DOTHAN         CLEAR     72  68  87 SW6       29.96F
OZARK CAIRNS   CLEAR     71  68  91 S3        29.92F
FT RUCKER HELI CLEAR     69  66  90 CALM      29.91F
RUCKER HELI 3  NOT AVBL
RUCKER HELI 2  NOT AVBL
FLORALA APT    CLEAR     70  66  87 CALM      29.95F
ANDALUSIA      CLEAR     74  67  78 CALM      29.93F
TROY           CLEAR     71  67  87 CALM      29.94F
EUFALA         FAIR      69  65  86 W3        29.91F
MOBILE         CLOUDY    70  67  90 CALM      29.95F
$$

!GAZ120>161-310700
...Southwest and South Central Georgia...

CITY           SKY/WX    TMP DP  RH WIND       PRES   REMARKS
THOMASVILLE    FAIR      72  68  88 CALM      29.93F
BAINBRIDGE     CLEAR     72  68  88 CALM      29.93F
MOODY AFB      CLEAR     72  67  84 SW5       29.91F
VALDOSTA       CLEAR     69  68  96 S3        29.93F
MOULTRIE       CLEAR     73  68  83 W3        29.93F
BLAKELY        CLEAR     72  68  88 CALM      29.93F
ALBANY         CLEAR     73  64  73 CALM      29.93F
TIFTON         FAIR      75  66  72 W3        29.92F
FITZGERALD     FAIR      76  66  71 SW3       29.94F
CORDELE        FAIR      74  66  75 CALM      29.92F
AMERICUS       FAIR      68  63  83 CALM      29.92F
HOMERVILLE     FAIR      72  68  88 W5        29.92F
$$

!GMZ750-755-770-775-310700
...Coastal and Buoy Obs...

STATION/POSITION TIME  TEMP    WIND        PRES    VSBY  WAVE
                       AIR SEA DIR/SP/G                  HT/PER
                 (UTC) (F)     (DEG/KT/KT) (MB)    (MI)  (FT/S)
KEATON BEACH     0600   80     280/  7/  8 1013.2F
CEDAR KEY        0600   80     240/  2/  3 1014.3F
C TOWER          0600   78     290/ 10/ 11 1014.5F
APALACHICOLA BUO 0550   79 80  260/  2/  2 1013.9F         1
PANAMA CITY BUOY 0550   79 81  250/  4/  6 1014.5F         1/ 3
MOBILE BUOY      0600   80 80  240/  6/  8 1014.1F
ORANGE BCH AL BU 0550   81 81              1013.0F         1/ 3
$$




USA.gov is the U.S. government's official web portal to all federal, state and local government web resources and services.